When you browse on this site, cookies collect data to enhance your experience and personalize the content and advertising you see.
Visit our Privacy Policy to learn more. By continuing to use the site, you agree to this use of cookies and data.
  • In Hungary
  • List of Countries
  • For 7 days
  • Water Temperature
  • Weather Map
  • News
  • Weather Widgets
  • user-avatar
    Login

    Hourly Weather Lesnaya Polyana

    Today, 20 January, Monday

    Time Temperature Precipitation Wind Pressure Humidity
    00:00 -5°C° 0 mm 3 mps 756 mmHg 94%
    01:00 -4°C° 0 mm 3 mps 756 mmHg 94%
    02:00 -4°C° 0 mm 3 mps 756 mmHg 94%
    03:00 -2°C° 0 mm 3 mps 756 mmHg 95%
    04:00 -2°C° 0 mm 3 mps 756 mmHg 94%
    05:00 -3°C° 0 mm 4 mps 755 mmHg 93%
    06:00 -3°C° 0 mm 4 mps 755 mmHg 92%
    07:00 -3°C° 0 mm 4 mps 755 mmHg 92%
    08:00 -3°C° 0 mm 4 mps 755 mmHg 93%
    09:00 -3°C° 0 mm 4 mps 755 mmHg 93%
    10:00 -4°C° 0 mm 5 mps 754 mmHg 93%
    11:00 -2°C° 0 mm 5 mps 754 mmHg 92%
    12:00 -2°C° 0 mm 5 mps 754 mmHg 92%
    13:00 -2°C° 0 mm 5 mps 754 mmHg 92%
    14:00 -2°C° 0 mm 5 mps 753 mmHg 92%
    15:00 -1°C° 0 mm 5 mps 753 mmHg 92%
    16:00 -2°C° 0 mm 5 mps 753 mmHg 94%
    17:00 -2°C° 0 mm 5 mps 753 mmHg 95%
    18:00 -2°C° 0 mm 5 mps 753 mmHg 97%
    19:00 -2°C° 0 mm 5 mps 753 mmHg 96%
    20:00 -2°C° 0 mm 5 mps 752 mmHg 96%
    21:00 -2°C° 0 mm 5 mps 752 mmHg 95%
    22:00 -2°C° 0.1 mm 5 mps 752 mmHg 96%
    23:00 -2°C° 0.1 mm 5 mps 751 mmHg 96%

    Tomorrow, 21 January, Tuesday

    Time Temperature Precipitation Wind Pressure Humidity
    00:00 -2°C° 0.1 mm 5 mps 751 mmHg 97%
    01:00 -2°C° 0.1 mm 5 mps 751 mmHg 96%
    02:00 -2°C° 0.1 mm 5 mps 751 mmHg 95%
    03:00 -2°C° 0.1 mm 5 mps 750 mmHg 94%
    04:00 -2°C° 0 mm 5 mps 750 mmHg 93%
    05:00 -2°C° 0 mm 5 mps 749 mmHg 93%
    06:00 -4°C° 0 mm 5 mps 749 mmHg 93%
    07:00 -4°C° 0 mm 5 mps 748 mmHg 92%
    08:00 -4°C° 0 mm 5 mps 748 mmHg 91%
    09:00 -5°C° 0 mm 5 mps 747 mmHg 91%
    10:00 -4°C° 0.2 mm 6 mps 746 mmHg 91%
    11:00 -4°C° 0.2 mm 6 mps 746 mmHg 92%
    12:00 -4°C° 0.2 mm 7 mps 745 mmHg 93%
    13:00 -4°C° 0.6 mm 7 mps 744 mmHg 94%
    14:00 -3°C° 0.6 mm 7 mps 744 mmHg 95%
    15:00 -3°C° 0.6 mm 7 mps 743 mmHg 96%
    16:00 -3°C° 0.3 mm 7 mps 742 mmHg 96%
    17:00 -2°C° 0.3 mm 6 mps 741 mmHg 97%
    18:00 -2°C° 0.3 mm 6 mps 740 mmHg 97%
    19:00 -1°C° 0 mm 6 mps 739 mmHg 97%
    20:00 -1°C° 0 mm 6 mps 739 mmHg 98%
    21:00 0°C° 0 mm 5 mps 738 mmHg 98%
    22:00 -1°C° 1 mm 6 mps 737 mmHg 98%
    23:00 -1°C° 1 mm 7 mps 736 mmHg 98%

    Day after tomorrow, 22 January, Wednesday

    Time Temperature Precipitation Wind Pressure Humidity
    00:00 0°C° 1 mm 7 mps 734 mmHg 97%
    01:00 0°C° 0.7 mm 7 mps 734 mmHg 97%
    02:00 0°C° 0.7 mm 8 mps 734 mmHg 96%
    03:00 0°C° 0.7 mm 8 mps 734 mmHg 96%
    04:00 -1°C° 0.1 mm 7 mps 734 mmHg 92%
    05:00 -1°C° 0.1 mm 7 mps 734 mmHg 88%
    06:00 -2°C° 0.1 mm 6 mps 734 mmHg 85%
    07:00 -3°C° 0 mm 6 mps 734 mmHg 84%
    08:00 -4°C° 0 mm 5 mps 734 mmHg 84%
    09:00 -4°C° 0 mm 5 mps 735 mmHg 84%
    10:00 -4°C° 0 mm 5 mps 734 mmHg 83%
    11:00 -4°C° 0 mm 6 mps 734 mmHg 82%
    12:00 -4°C° 0 mm 6 mps 734 mmHg 81%
    13:00 -4°C° 0 mm 6 mps 734 mmHg 82%
    14:00 -4°C° 0 mm 5 mps 734 mmHg 82%
    15:00 -4°C° 0 mm 5 mps 733 mmHg 83%
    16:00 -4°C° 0 mm 5 mps 733 mmHg 85%
    17:00 -3°C° 0 mm 4 mps 733 mmHg 87%
    18:00 -3°C° 0 mm 4 mps 733 mmHg 89%
    19:00 -4°C° 0 mm 4 mps 733 mmHg 88%
    20:00 -4°C° 0 mm 4 mps 732 mmHg 88%
    21:00 -4°C° 0 mm 4 mps 732 mmHg 88%
    22:00 -4°C° 0 mm 4 mps 732 mmHg 88%
    23:00 -4°C° 0 mm 4 mps 732 mmHg 89%

    23 January, Thursday

    Time Temperature Precipitation Wind Pressure Humidity
    00:00 -4°C° 0 mm 4 mps 732 mmHg 90%
    01:00 -5°C° 0 mm 4 mps 732 mmHg 89%
    02:00 -5°C° 0 mm 4 mps 733 mmHg 88%
    03:00 -5°C° 0 mm 4 mps 733 mmHg 87%
    04:00 -6°C° 0 mm 5 mps 733 mmHg 88%
    05:00 -6°C° 0 mm 5 mps 733 mmHg 89%
    06:00 -6°C° 0 mm 5 mps 733 mmHg 90%
    07:00 -6°C° 0 mm 5 mps 734 mmHg 87%
    08:00 -7°C° 0 mm 5 mps 735 mmHg 84%
    09:00 -7°C° 0 mm 5 mps 735 mmHg 82%
    10:00 -8°C° 0 mm 6 mps 736 mmHg 79%
    11:00 -8°C° 0 mm 6 mps 737 mmHg 76%
    12:00 -8°C° 0 mm 7 mps 737 mmHg 73%
    13:00 -9°C° 0 mm 6 mps 738 mmHg 72%
    14:00 -9°C° 0 mm 6 mps 739 mmHg 71%
    15:00 -9°C° 0 mm 6 mps 739 mmHg 71%
    16:00 -10°C° 0 mm 6 mps 740 mmHg 72%
    17:00 -10°C° 0 mm 5 mps 741 mmHg 74%
    18:00 -10°C° 0 mm 5 mps 742 mmHg 75%
    19:00 -11°C° 0 mm 5 mps 742 mmHg 77%
    20:00 -11°C° 0 mm 5 mps 743 mmHg 78%
    21:00 -11°C° 0 mm 5 mps 744 mmHg 79%
    22:00 -10°C° 0 mm 4 mps 744 mmHg 80%
    23:00 -10°C° 0 mm 4 mps 745 mmHg 81%

    24 January, Friday

    Time Temperature Precipitation Wind Pressure Humidity
    00:00 -11°C° 0 mm 4 mps 745 mmHg 82%
    01:00 -11°C° 0 mm 4 mps 746 mmHg 83%
    02:00 -11°C° 0 mm 4 mps 746 mmHg 84%
    03:00 -11°C° 0 mm 4 mps 746 mmHg 85%
    04:00 -10°C° 0 mm 3 mps 746 mmHg 85%
    05:00 -10°C° 0 mm 3 mps 747 mmHg 85%
    06:00 -10°C° 0 mm 3 mps 747 mmHg 85%
    07:00 -10°C° 0 mm 3 mps 747 mmHg 85%
    08:00 -10°C° 0 mm 3 mps 747 mmHg 85%
    09:00 -10°C° 0 mm 3 mps 746 mmHg 85%
    10:00 -10°C° 0 mm 4 mps 746 mmHg 84%
    11:00 -10°C° 0 mm 4 mps 746 mmHg 82%
    12:00 -10°C° 0 mm 5 mps 746 mmHg 81%
    13:00 -8°C° 0 mm 5 mps 745 mmHg 84%
    14:00 -8°C° 0 mm 5 mps 745 mmHg 87%
    15:00 -7°C° 0 mm 5 mps 744 mmHg 90%
    16:00 -7°C° 0.1 mm 5 mps 744 mmHg 91%
    17:00 -6°C° 0.1 mm 5 mps 743 mmHg 92%
    18:00 -6°C° 0.1 mm 6 mps 743 mmHg 93%
    19:00 -6°C° 0.1 mm 6 mps 743 mmHg 93%
    20:00 -6°C° 0.1 mm 6 mps 743 mmHg 93%
    21:00 -5°C° 0.1 mm 6 mps 742 mmHg 93%
    22:00 -5°C° 0.1 mm 6 mps 742 mmHg 94%
    23:00 -4°C° 0.1 mm 6 mps 742 mmHg 95%

    25 January, Saturday

    Time Temperature Precipitation Wind Pressure Humidity
    00:00 -4°C° 0.1 mm 6 mps 741 mmHg 95%
    01:00 -4°C° 0.1 mm 6 mps 741 mmHg 95%
    02:00 -3°C° 0.1 mm 6 mps 740 mmHg 95%
    03:00 -3°C° 0.1 mm 7 mps 740 mmHg 95%
    04:00 -3°C° 0.5 mm 7 mps 740 mmHg 96%
    05:00 -2°C° 0.5 mm 6 mps 740 mmHg 96%
    06:00 -2°C° 0.5 mm 6 mps 740 mmHg 97%
    07:00 -2°C° 0.5 mm 6 mps 740 mmHg 97%
    08:00 -2°C° 0.5 mm 6 mps 740 mmHg 97%
    09:00 -2°C° 0.5 mm 6 mps 740 mmHg 97%
    10:00 -2°C° 0.2 mm 6 mps 740 mmHg 97%
    11:00 -1°C° 0.2 mm 5 mps 741 mmHg 97%
    12:00 -1°C° 0.2 mm 5 mps 741 mmHg 97%
    13:00 -1°C° 0.1 mm 5 mps 741 mmHg 97%
    14:00 -1°C° 0.1 mm 5 mps 741 mmHg 96%
    15:00 -1°C° 0.1 mm 5 mps 742 mmHg 96%
    16:00 -1°C° 0 mm 5 mps 742 mmHg 96%
    17:00 -1°C° 0 mm 5 mps 742 mmHg 96%
    18:00 -1°C° 0 mm 5 mps 742 mmHg 96%
    19:00 -1°C° 0 mm 5 mps 743 mmHg 96%
    20:00 -1°C° 0 mm 5 mps 743 mmHg 95%
    21:00 -1°C° 0 mm 5 mps 743 mmHg 95%
    22:00 -1°C° 0 mm 5 mps 743 mmHg 95%
    23:00 -1°C° 0 mm 5 mps 744 mmHg 94%
    Show more